FREGAT DEB, 45648

Orbit data source: Space-Track

FREGAT DEB, 45648 is space debris in LEO originally from a launch on Mon, 18 Jul 2011 UTC launched from the Tyuratam Missile And Space Complex (TTMTR). Debris objects in space refer to the collection of defunct objects orbiting the Earth. Examples of debris include non-operational satellites, rocket bodies, and fragments generated from explosions, collisions, or faulty payload assembly.

Loading next visibility...
Identifier
45648, 2011-037AQ
Orbit
LEO
Country
Flag of CISCIS
Related business
Manufacturer
Lavochkin
Mission
Spacecraft
Bus & Motor
Unknown
Mass
Unknown
Launch date (UTC)
2011-07-18 (15 years ago)
Launch vehicle
Unknown
Launch site
Tyuratam Missile And Space Complex (TTMTR)
Object type
Payload
Rocket body
Debris
Shape & HBR
Unknown shape, 0.1 m
Radar Cross Section
Medium (>0.1 m² and <1 m²)

Expand to show TLE details & history
Last TLE update: 15 hours ago

TLE from 15 hours ago
0 FREGAT DEB
1 45648U 11037AQ  26256.27587545  .00099283  00000-0  36567-2 0  9993
2 45648  51.3927 223.3857 0767498 301.1289  51.6524 14.00847472282474
Epoch: 2026-09-13T06:37Z
TLE epoch observation values (Epoch: 2026-09-13T06:37:15.638Z)
Latitude
-0.00008°
Longitude
131.79762°
Altitude
573.697 km
Speed
7.739 km/s
True Right ascension
14h 53m 32s
True Declination
0° 00' 00"
Sunlit
Object was in daylight at epoch
Visualization orbit readout
Latitude
Unknown
Longitude
Unknown
Altitude
Unknown
Speed
Unknown
Apparent Right ascension
Unknown
Apparent Declination
Unknown
Sunlit
N/A
Visualization observer readout
Local Sidereal Time
14:17:47
Azimuth
Unknown
Elevation
Unknown
Doppler factor
Unknown
Orbital elements
Apogee altitude
1,449.314 km
Perigee altitude
333.446 km
Semi-major axis
7,269.517 km
Eccentricity
0.07675
Inclination
51.3927°
RAAN
223.3857°
Arg. of periapsis
301.1289°
True anomaly
58.96518°
Mean anomaly
51.6524°
Eccentric anomaly
55.26625°
Mean motion
3.50175 °/min
Orbital period
102.81 mins
BSTAR
0.0036567
Loading maneuver chart data...
Computing Atmospheric mass density...
Loading historical data...
Loading historical data...
Loading historical data...
Loading historical data...
Loading historical data...
Loading historical data...
Loading historical data...

Documentation

Showing up to 5 results
|